Clarksburg, WV

1:46 PM EST on November 19, 2019 (GMT -0500)
Benedum

Weather History for KCKB - May, 2019

Change the Weather History Date:

Monday, May 13, 2019

  Actual Average Record
Temperature  
Mean Temperature 56 °F -  
Max Temperature 61 °F 73 °F 89 °F (1936)
Min Temperature 50 °F 47 °F 30 °F (1928)
Degree Days  
Heating Degree Days 9    
Month to date heating degree days 29  
Growing Degree Days 6 (Base 50)    
Moisture  
Dew Point 50 °F    
Average Humidity 74    
Maximum Humidity 86    
Minimum Humidity 62    
Precipitation  
Precipitation 0.21 in - - ()
Month to date precipitation 1.79  
Year to date precipitation 15.92  
Sea Level Pressure  
Sea Level Pressure 29.77 in    
Wind  
Wind Speed 9 mph (WSW)    
Max Wind Speed 22 mph    
Max Gust Speed 31 mph    
Visibility 8 miles    
Events Rain    
Averages and records for this station are not official NWS values.
T = Trace of Precipitation, MM = Missing Value Source: NWS Daily Summary

Daily Weather History Graph

Daily Weather History Graph

Search for Another Location

Airport or City:

Astronomy

May. 13, 2019 Rise Set
Actual Time 6:09 AM EDT 8:25 PM EDT
Civil Twilight 5:39 AM EDT 8:55 PM EDT
Nautical Twilight 5:02 AM EDT 9:32 PM EDT
Astronomical Twilight 4:22 AM EDT 10:13 PM EDT
Moon 2:38 PM EDT (5/13) 3:23 AM EDT (5/13)
Length of Visible Light 15h 16m
Length of Day
14h 16m
Waxing Gibbous, 68% of the Moon is Illuminated
May 13
Waxing Gibbous
May 18
Full
May 26
Last Quarter
Jun 3
New
Jun 10
First Quarter

Hourly Weather History & Observations

Time (EDT) Temp. Dew Point Humidity Pressure Visibility Wind Dir Wind Speed Gust Speed Precip Events Conditions
12:17 AM 59.0 °F 55.0 °F 87% 29.72 in 3.0 mi South 3.5 mph - 0.01 in Rain Light Rain
12:31 AM 57.9 °F 55.0 °F 90% 29.73 in 8.0 mi SSW 3.5 mph - 0.01 in   Overcast
12:38 AM 57.9 °F 54.0 °F 87% 29.73 in 8.0 mi SSW 3.5 mph - 0.01 in   Overcast
12:49 AM 57.2 °F 53.6 °F 88% 29.73 in 9.0 mi SSW 4.6 mph - 0.01 in   Overcast
12:53 AM 57.9 °F 54.0 °F 87% 29.70 in 9.0 mi SSW 4.6 mph - 0.01 in   Overcast
1:03 AM 57.9 °F 55.0 °F 90% 29.73 in 9.0 mi SSW 3.5 mph - N/A   Overcast
1:12 AM 57.9 °F 55.0 °F 90% 29.73 in 9.0 mi SSW 3.5 mph - N/A   Overcast
1:29 AM 57.9 °F 55.0 °F 90% 29.73 in 8.0 mi SSW 3.5 mph - N/A   Overcast
1:53 AM 57.9 °F 54.0 °F 87% 29.70 in 9.0 mi SW 3.5 mph - N/A   Overcast
2:53 AM 57.9 °F 53.1 °F 84% 29.69 in 9.0 mi West 5.8 mph - 0.00 in Rain Light Rain
3:16 AM 57.9 °F 53.1 °F 84% 29.71 in 10.0 mi WSW 4.6 mph - 0.00 in Rain Light Rain
3:53 AM 57.0 °F 53.1 °F 87% 29.68 in 8.0 mi SSW 4.6 mph - 0.00 in   Overcast
4:10 AM 57.0 °F 53.1 °F 87% 29.71 in 8.0 mi SW 3.5 mph - N/A   Overcast
4:53 AM 57.0 °F 53.1 °F 87% 29.69 in 8.0 mi WSW 4.6 mph - N/A   Overcast
5:01 AM 57.0 °F 52.0 °F 83% 29.71 in 8.0 mi SW 4.6 mph - N/A   Overcast
5:35 AM 57.0 °F 51.1 °F 81% 29.71 in 10.0 mi WNW 5.8 mph - N/A   Overcast
5:53 AM 57.0 °F 51.1 °F 81% 29.69 in 10.0 mi West 6.9 mph - N/A   Overcast
6:53 AM 55.9 °F 50.0 °F 80% 29.70 in 10.0 mi WNW 3.5 mph - N/A   Overcast
7:53 AM 55.9 °F 48.9 °F 77% 29.72 in 10.0 mi West 6.9 mph - N/A   Overcast
8:34 AM 54.0 °F 50.0 °F 86% 29.75 in 1.5 mi WNW 6.9 mph - 0.00 in Rain Light Rain
8:53 AM 53.1 °F 50.0 °F 89% 29.73 in 3.0 mi West 8.1 mph - 0.01 in Rain Light Rain
9:53 AM 54.0 °F 48.9 °F 83% 29.75 in 8.0 mi West 6.9 mph - 0.01 in   Overcast
10:53 AM 55.9 °F 48.0 °F 75% 29.75 in 10.0 mi West 10.4 mph - 0.00 in   Overcast
11:53 AM 55.9 °F 46.9 °F 72% 29.76 in 10.0 mi WSW 12.7 mph - N/A   Overcast
12:53 PM 55.0 °F 48.9 °F 80% 29.76 in 3.0 mi WNW 11.5 mph - 0.02 in Rain Light Rain
1:00 PM 55.9 °F 48.9 °F 77% 29.78 in 9.0 mi West 6.9 mph 17.3 mph 0.00 in Rain Light Rain
1:32 PM 57.9 °F 48.9 °F 72% 29.78 in 10.0 mi West 6.9 mph - 0.00 in   Overcast
1:49 PM 57.2 °F 46.4 °F 67% 29.77 in 10.0 mi West 11.5 mph 21.9 mph 0.00 in   Overcast
1:53 PM 60.1 °F 46.9 °F 62% 29.75 in 10.0 mi West 12.7 mph 21.9 mph 0.00 in   Mostly Cloudy
2:53 PM 57.0 °F 46.0 °F 67% 29.76 in 6.0 mi West 11.5 mph 21.9 mph 0.01 in Rain Light Rain
3:53 PM 57.9 °F 46.0 °F 65% 29.77 in 10.0 mi WNW 17.3 mph 27.6 mph 0.00 in Rain Light Rain
4:53 PM 59.0 °F 46.0 °F 62% 29.78 in 10.0 mi West 13.8 mph 24.2 mph 0.00 in   Mostly Cloudy
5:53 PM 57.9 °F 45.0 °F 62% 29.80 in 10.0 mi WNW 12.7 mph 20.7 mph N/A   Overcast
6:53 PM 57.0 °F 46.0 °F 67% 29.81 in 10.0 mi WNW 10.4 mph 16.1 mph 0.00 in   Overcast
7:53 PM 55.9 °F 45.0 °F 67% 29.83 in 10.0 mi West 6.9 mph - 0.00 in   Overcast
8:44 PM 53.1 °F 48.0 °F 83% 29.87 in 2.5 mi West 6.9 mph - 0.05 in Rain Heavy Rain
8:53 PM 53.1 °F 48.0 °F 83% 29.86 in 5.0 mi West 6.9 mph - 0.05 in Rain Light Rain
9:05 PM 52.0 °F 46.9 °F 83% 29.88 in 9.0 mi West 8.1 mph - 0.01 in Rain Light Rain
9:53 PM 52.0 °F 46.9 °F 83% 29.88 in 10.0 mi WSW 6.9 mph - 0.01 in   Overcast
10:24 PM 52.0 °F 46.9 °F 83% 29.90 in 10.0 mi WSW 6.9 mph - N/A   Overcast
10:53 PM 52.0 °F 46.9 °F 83% 29.89 in 10.0 mi West 8.1 mph - 0.00 in Rain Light Rain
11:07 PM 52.0 °F 46.9 °F 83% 29.90 in 10.0 mi West 8.1 mph - 0.00 in Rain Light Rain
11:21 PM 52.0 °F 46.9 °F 83% 29.90 in 9.0 mi West 8.1 mph - 0.01 in Rain Light Rain
11:53 PM 51.1 °F 46.9 °F 86% 29.88 in 3.0 mi West 5.8 mph - 0.05 in Rain Light Rain
11:58 PM 51.1 °F 46.9 °F 86% 29.90 in 7.0 mi WNW 4.6 mph - 0.00 in Rain Light Rain